TimeEDT,TemperatureF,Dew PointF,Humidity,Sea Level PressureIn,VisibilityMPH,Wind Direction,Wind SpeedMPH,Gust SpeedMPH,PrecipitationIn,Events,Conditions,WindDirDegrees,DateUTC
12:54 AM,55.9,55.9,100,30.16,0.5,NNE,4.6,-,N/A,Fog,Fog,30,2013-05-20 04:54:00
1:32 AM,55.4,55.4,100,30.14,1.0,NNE,3.5,-,0.00,,Mist,30,2013-05-20 05:32:00
1:54 AM,55.9,55.9,100,30.13,1.0,NE,3.5,-,0.00,,Mist,40,2013-05-20 05:54:00
2:54 AM,55.9,55.9,100,30.10,1.5,Calm,Calm,-,N/A,,Overcast,0,2013-05-20 06:54:00
3:54 AM,55.9,55.9,100,30.09,1.0,Calm,Calm,-,N/A,,Mist,0,2013-05-20 07:54:00
4:08 AM,55.4,55.4,100,30.10,0.8,Calm,Calm,-,N/A,,Mist,0,2013-05-20 08:08:00
4:54 AM,55.9,55.9,100,30.09,0.5,Calm,Calm,-,0.01,Fog,Fog,0,2013-05-20 08:54:00
5:54 AM,57.0,57.0,100,30.09,0.5,Calm,Calm,-,N/A,Fog,Fog,0,2013-05-20 09:54:00
6:01 AM,57.2,57.2,100,30.09,0.2,Calm,Calm,-,N/A,Fog,Fog,0,2013-05-20 10:01:00
6:32 AM,57.2,57.2,100,30.09,0.5,Calm,Calm,-,N/A,Fog,Fog,0,2013-05-20 10:32:00
6:54 AM,57.0,57.0,100,30.10,0.5,Calm,Calm,-,N/A,Fog,Fog,0,2013-05-20 10:54:00
7:30 AM,57.2,57.2,100,30.11,1.8,Calm,Calm,-,N/A,,Overcast,0,2013-05-20 11:30:00
8:13 AM,59.0,59.0,100,30.12,2.5,Calm,Calm,-,N/A,,Overcast,0,2013-05-20 12:13:00
8:20 AM,60.8,60.8,100,30.12,5.0,Calm,Calm,-,N/A,,Overcast,0,2013-05-20 12:20:00
8:28 AM,60.8,60.8,100,30.11,7.0,Calm,Calm,-,N/A,,Unknown,0,2013-05-20 12:28:00
8:54 AM,61.0,61.0,100,30.10,9.0,Calm,Calm,-,N/A,,Overcast,0,2013-05-20 12:54:00
9:47 AM,62.6,62.6,100,30.11,10.0,SW,4.6,-,N/A,,Overcast,220,2013-05-20 13:47:00
9:54 AM,63.0,63.0,100,30.10,10.0,Variable,3.5,-,N/A,,Overcast,0,2013-05-20 13:54:00
10:54 AM,70.0,64.9,84,30.09,10.0,Variable,3.5,-,N/A,,Mostly Cloudy,0,2013-05-20 14:54:00
11:22 AM,71.6,64.4,78,30.09,10.0,SW,5.8,-,N/A,,Overcast,220,2013-05-20 15:22:00
11:54 AM,71.1,64.0,78,30.08,10.0,Variable,5.8,-,N/A,,Overcast,0,2013-05-20 15:54:00
12:54 PM,73.0,64.9,76,30.05,10.0,Variable,4.6,-,N/A,,Overcast,0,2013-05-20 16:54:00
1:40 PM,73.4,64.4,73,30.04,10.0,Variable,4.6,-,N/A,,Mostly Cloudy,0,2013-05-20 17:40:00
2:54 PM,73.0,64.9,76,30.03,10.0,Variable,3.5,-,N/A,,Overcast,0,2013-05-20 18:54:00
3:16 PM,73.4,64.4,73,30.04,10.0,SSW,3.5,-,N/A,,Overcast,210,2013-05-20 19:16:00
3:54 PM,73.9,66.0,76,30.01,10.0,Calm,Calm,-,N/A,,Overcast,0,2013-05-20 19:54:00
4:54 PM,77.0,66.0,69,29.99,10.0,West,3.5,-,N/A,,Overcast,260,2013-05-20 20:54:00
5:54 PM,75.9,64.9,69,29.99,10.0,South,5.8,-,N/A,,Scattered Clouds,180,2013-05-20 21:54:00
6:01 PM,75.2,64.4,69,29.99,10.0,Calm,Calm,-,N/A,,Mostly Cloudy,0,2013-05-20 22:01:00
6:14 PM,75.2,64.4,69,29.99,10.0,Variable,3.5,-,N/A,,Mostly Cloudy,0,2013-05-20 22:14:00
6:54 PM,75.0,64.9,71,29.99,10.0,SSW,4.6,-,N/A,,Mostly Cloudy,200,2013-05-20 22:54:00
7:22 PM,73.4,66.2,78,29.99,10.0,Calm,Calm,-,N/A,,Mostly Cloudy,0,2013-05-20 23:22:00
7:54 PM,73.0,64.9,76,29.98,10.0,Calm,Calm,-,N/A,,Mostly Cloudy,0,2013-05-20 23:54:00
8:54 PM,70.0,64.9,84,29.99,10.0,South,4.6,-,N/A,,Clear,190,2013-05-21 00:54:00
10:54 PM,64.9,64.0,97,29.99,10.0,Calm,Calm,-,N/A,,Clear,0,2013-05-21 02:54:00
11:54 PM,64.9,63.0,93,29.97,10.0,South,3.5,-,N/A,,Clear,180,2013-05-21 03:54:00